| time (UTC) | temp F | wind direction | speed MPH | gust MPH | rain 1hr in | rain 24hr in | rain mn in | humidity % | barometer mb |
| 20260506220842 | 60 | 47 | 3.0 | 7.0 | 0.00 | 0.00 | 0.00 | 99 | 1020.5 |
| 20260506220338 | 60 | 12 | 3.0 | 9.0 | 0.00 | 0.00 | 0.00 | 99 | 1020.5 |
| 20260506215835 | 60 | 349 | 0.0 | 3.0 | 0.00 | 0.00 | 0.00 | 99 | 1020.1 |
| 20260506215330 | 60 | 9 | 2.0 | 8.0 | 0.00 | 0.00 | 0.00 | 99 | 1020.1 |
| 20260506214827 | 60 | 345 | 2.0 | 11.0 | 0.00 | 0.00 | 0.00 | 99 | 1020.3 |
| 20260506214323 | 60 | 324 | 5.0 | 7.0 | 0.00 | 0.00 | 0.00 | 99 | 1020.3 |
| 20260506213822 | 60 | 10 | 3.0 | 9.0 | 0.00 | 0.00 | 0.00 | 99 | 1020.3 |
| 20260506213319 | 60 | 39 | 5.0 | 7.0 | 0.00 | 0.00 | 0.00 | 99 | 1020.9 |
| 20260506212816 | 60 | 73 | 2.0 | 8.0 | 0.00 | 0.00 | 0.00 | 99 | 1020.5 |
| 20260506212312 | 60 | 100 | 2.0 | 6.0 | 0.00 | 0.00 | 0.00 | 99 | 1020.6 |
| 20260506211807 | 60 | 35 | 3.0 | 6.0 | 0.00 | 0.00 | 0.00 | 99 | 1020.5 |
| 20260506211303 | 61 | 352 | 0.0 | 2.0 | 0.00 | 0.00 | 0.00 | 99 | 1020.5 |
| 20260506210801 | 60 | 328 | 2.0 | 8.0 | 0.00 | 0.00 | 0.00 | 99 | 1020.4 |
| 20260506210257 | 60 | 73 | 5.0 | 5.0 | 0.00 | 0.00 | 0.00 | 99 | 1020.5 |
| 20260506205754 | 61 | 102 | 2.0 | 8.0 | 0.00 | 0.00 | 0.00 | 99 | 1020.7 |
| 20260506205250 | 61 | 36 | 2.0 | 4.0 | 0.00 | 0.00 | 0.00 | 99 | 1020.7 |
| 20260506204747 | 60 | 33 | 4.0 | 11.0 | 0.00 | 0.00 | 0.00 | 99 | 1020.7 |
| 20260506204245 | 60 | 32 | 3.0 | 6.0 | 0.00 | 0.00 | 0.00 | 99 | 1020.3 |
| 20260506203742 | 59 | 28 | 8.0 | 12.0 | 0.00 | 0.00 | 0.00 | 99 | 1020.8 |
| 20260506203239 | 60 | 80 | 2.0 | 8.0 | 0.00 | 0.00 | 0.00 | 99 | 1021.0 |
| 20260506202736 | 59 | 330 | 0.0 | 9.0 | 0.00 | 0.00 | 0.00 | 99 | 1021.2 |
| 20260506202233 | 59 | 30 | 4.0 | 6.0 | 0.00 | 0.00 | 0.00 | 99 | 1021.2 |
| 20260506201730 | 59 | 17 | 5.0 | 9.0 | 0.00 | 0.00 | 0.00 | 99 | 1020.9 |
| 20260506201226 | 59 | 51 | 2.0 | 9.0 | 0.00 | 0.00 | 0.00 | 99 | 1021.1 |
| 20260506200723 | 60 | 293 | 3.0 | 10.0 | 0.00 | 0.00 | 0.00 | 99 | 1021.0 |
| 20260506200220 | 59 | 15 | 3.0 | 9.0 | 0.00 | 0.00 | 0.00 | 99 | 1020.8 |
| 20260506195716 | 59 | 290 | 2.0 | 6.0 | 0.00 | 0.00 | 0.00 | 99 | 1021.3 |
| 20260506195212 | 58 | 32 | 2.0 | 6.0 | 0.00 | 0.00 | 0.00 | 99 | 1021.5 |
| 20260506194705 | 57 | 0 | 0.0 | 3.0 | 0.00 | 0.00 | 0.00 | 99 | 1021.3 |
| 20260506194201 | 57 | 33 | 4.0 | 6.0 | 0.00 | 0.00 | 0.00 | 99 | 1021.6 |
| 20260506193659 | 57 | 18 | 1.0 | 3.0 | 0.00 | 0.00 | 0.00 | 99 | 1021.7 |
| 20260506193155 | 57 | 336 | 2.0 | 3.0 | 0.00 | 0.00 | 0.00 | 99 | 1021.7 |
| 20260506192652 | 58 | 29 | 0.0 | 3.0 | 0.00 | 0.00 | 0.00 | 99 | 1021.3 |
| 20260506192148 | 57 | 25 | 5.0 | 5.0 | 0.00 | 0.00 | 0.00 | 99 | 1021.3 |
| 20260506191646 | 57 | 33 | 2.0 | 3.0 | 0.00 | 0.00 | 0.00 | 99 | 1021.4 |
| 20260506191141 | 57 | 0 | 2.0 | 3.0 | 0.00 | 0.00 | 0.00 | 99 | 1021.8 |
| 20260506190639 | 57 | 63 | 0.0 | 3.0 | 0.00 | 0.00 | 0.00 | 99 | 1022.0 |
| 20260506190135 | 57 | 30 | 0.0 | 3.0 | 0.00 | 0.00 | 0.00 | 99 | 1021.6 |
| 20260506185633 | 57 | 332 | 2.0 | 4.0 | 0.00 | 0.00 | 0.00 | 99 | 1021.6 |
| 20260506185129 | 57 | 15 | 1.0 | 5.0 | 0.00 | 0.00 | 0.00 | 99 | 1021.4 |
| 20260506184626 | 57 | 0 | 2.0 | 4.0 | 0.00 | 0.00 | 0.00 | 99 | 1021.1 |
| 20260506184123 | 56 | 0 | 0.0 | 7.0 | 0.00 | 0.00 | 0.00 | 99 | 1021.0 |
| 20260506183620 | 56 | 24 | 6.0 | 6.0 | 0.00 | 0.00 | 0.00 | 99 | 1020.5 |
| 20260506183116 | 56 | 7 | 3.0 | 7.0 | 0.00 | 0.00 | 0.00 | 99 | 1020.4 |
| 20260506182614 | 56 | 348 | 0.0 | 8.0 | 0.00 | 0.00 | 0.00 | 99 | 1020.3 |
| 20260506182110 | 56 | 17 | 6.0 | 9.0 | 0.00 | 0.00 | 0.00 | 99 | 1020.3 |
| 20260506181609 | 56 | 10 | 4.0 | 9.0 | 0.00 | 0.00 | 0.00 | 99 | 1019.9 |
| 20260506181105 | 56 | 16 | 5.0 | 8.0 | 0.00 | 0.00 | 0.00 | 99 | 1019.8 |
| 20260506180602 | 55 | 8 | 3.0 | 7.0 | 0.00 | 0.00 | 0.00 | 99 | 1020.1 |
| 20260506180059 | 55 | 8 | 0.0 | 6.0 | 0.00 | 0.00 | 0.00 | 99 | 1020.5 |
| 20260506175555 | 55 | 291 | 1.0 | 5.0 | 0.00 | 0.00 | 0.00 | 99 | 1020.9 |
| 20260506175051 | 55 | 45 | 3.0 | 8.0 | 0.00 | 0.00 | 0.00 | 99 | 1020.8 |
| 20260506174550 | 55 | 2 | 3.0 | 6.0 | 0.00 | 0.00 | 0.00 | 99 | 1020.9 |
| 20260506174046 | 54 | 18 | 0.0 | 9.0 | 0.00 | 0.00 | 0.00 | 99 | 1020.9 |
| 20260506173544 | 54 | 32 | 1.0 | 7.0 | 0.00 | 0.00 | 0.00 | 99 | 1020.8 |
| 20260506173040 | 54 | 4 | 3.0 | 9.0 | 0.00 | 0.00 | 0.00 | 99 | 1020.6 |
| 20260506172538 | 54 | 37 | 5.0 | 7.0 | 0.00 | 0.00 | 0.00 | 99 | 1020.9 |
| 20260506172034 | 54 | 15 | 1.0 | 7.0 | 0.00 | 0.00 | 0.00 | 99 | 1020.8 |
| 20260506171531 | 54 | 345 | 5.0 | 5.0 | 0.00 | 0.00 | 0.00 | 99 | 1020.8 |
| 20260506171029 | 54 | 21 | 4.0 | 7.0 | 0.00 | 0.00 | 0.00 | 99 | 1021.2 |
| 20260506170526 | 53 | 15 | 6.0 | 9.0 | 0.00 | 0.00 | 0.00 | 99 | 1020.9 |
| 20260506170018 | 53 | 13 | 4.0 | 9.0 | 0.00 | 0.00 | 0.00 | 99 | 1021.3 |
| 20260506165516 | 53 | 353 | 5.0 | 9.0 | 0.00 | 0.00 | 0.00 | 99 | 1021.4 |
| 20260506165012 | 53 | 353 | 2.0 | 11.0 | 0.00 | 0.00 | 0.00 | 99 | 1021.7 |
| 20260506164509 | 53 | 45 | 7.0 | 7.0 | 0.00 | 0.00 | 0.00 | 99 | 1021.6 |
| 20260506164007 | 53 | 16 | 2.0 | 6.0 | 0.00 | 0.00 | 0.00 | 99 | 1021.9 |
| 20260506163502 | 53 | 78 | 4.0 | 7.0 | 0.00 | 0.00 | 0.00 | 99 | 1021.8 |
| 20260506162956 | 53 | 31 | 7.0 | 7.0 | 0.00 | 0.00 | 0.00 | 99 | 1022.0 |
| 20260506162454 | 53 | 0 | 0.0 | 6.0 | 0.00 | 0.00 | 0.00 | 99 | 1022.1 |
| 20260506161951 | 53 | 16 | 0.0 | 3.0 | 0.00 | 0.00 | 0.00 | 99 | 1022.0 |
| 20260506161449 | 54 | 11 | 0.0 | 2.0 | 0.00 | 0.00 | 0.00 | 99 | 1022.0 |
| 20260506160946 | 53 | 312 | 0.0 | 4.0 | 0.00 | 0.00 | 0.00 | 99 | 1021.4 |
| 20260506160444 | 53 | 59 | 0.0 | 4.0 | 0.00 | 0.00 | 0.00 | 99 | 1020.5 |
| 20260506155941 | 53 | 34 | 2.0 | 5.0 | 0.00 | 0.00 | 0.00 | 99 | 1020.6 |
| 20260506155438 | 52 | 6 | 4.0 | 4.0 | 0.00 | 0.00 | 0.00 | 99 | 1020.6 |
| 20260506153605 | 53 | 12 | 1.0 | 6.0 | 0.00 | 0.00 | 0.00 | 99 | 1023.3 |
| 20260506153103 | 53 | 330 | 2.0 | 6.0 | 0.00 | 0.00 | 0.00 | 99 | 1023.3 |
| 20260506152559 | 54 | 339 | 3.0 | 8.0 | 0.00 | 0.00 | 0.00 | 99 | 1022.8 |
| 20260506152057 | 54 | 352 | 5.0 | 5.0 | 0.00 | 0.00 | 0.00 | 99 | 1022.3 |
| 20260506151555 | 54 | 73 | 5.0 | 5.0 | 0.00 | 0.00 | 0.00 | 99 | 1022.0 |
| 20260506151052 | 54 | 23 | 5.0 | 6.0 | 0.00 | 0.00 | 0.00 | 99 | 1021.5 |
| 20260506150548 | 54 | 46 | 4.0 | 10.0 | 0.00 | 0.00 | 0.00 | 99 | 1021.6 |
| 20260506150045 | 54 | 28 | 4.0 | 15.0 | 0.00 | 0.00 | 0.00 | 99 | 1020.6 |
| 20260506145542 | 54 | 26 | 8.0 | 12.0 | 0.00 | 0.00 | 0.00 | 99 | 1021.5 |
| 20260506145040 | 54 | 23 | 9.0 | 10.0 | 0.00 | 0.00 | 0.00 | 99 | 1021.5 |
| 20260506144536 | 54 | 355 | 2.0 | 10.0 | 0.00 | 0.00 | 0.00 | 99 | 1021.5 |
| 20260506144034 | 54 | 0 | 3.0 | 9.0 | 0.00 | 0.00 | 0.00 | 99 | 1021.7 |
| 20260506143531 | 54 | 48 | 6.0 | 6.0 | 0.00 | 0.00 | 0.00 | 99 | 1021.6 |
| 20260506143030 | 54 | 5 | 7.0 | 9.0 | 0.00 | 0.00 | 0.00 | 99 | 1021.8 |
| 20260506142527 | 54 | 41 | 12.0 | 12.0 | 0.00 | 0.00 | 0.00 | 99 | 1021.4 |
| 20260506142025 | 54 | 15 | 2.0 | 9.0 | 0.00 | 0.00 | 0.00 | 99 | 1021.2 |
| 20260506141522 | 54 | 9 | 5.0 | 11.0 | 0.00 | 0.00 | 0.00 | 99 | 1020.7 |
| 20260506141021 | 54 | 13 | 3.0 | 9.0 | 0.00 | 0.00 | 0.00 | 99 | 1021.2 |
| 20260506140518 | 54 | 352 | 3.0 | 7.0 | 0.00 | 0.00 | 0.00 | 99 | 1020.8 |
| 20260506140015 | 53 | 95 | 2.0 | 9.0 | 0.00 | 0.00 | 0.00 | 99 | 1020.7 |
| 20260506135512 | 53 | 67 | 4.0 | 11.0 | 0.00 | 0.00 | 0.00 | 99 | 1020.6 |
| 20260506135008 | 53 | 7 | 5.0 | 10.0 | 0.00 | 0.00 | 0.00 | 99 | 1020.6 |
| 20260506134504 | 54 | 57 | 4.0 | 10.0 | 0.00 | 0.00 | 0.00 | 99 | 1020.6 |
| 20260506134000 | 53 | 28 | 3.0 | 5.0 | 0.00 | 0.00 | 0.00 | 99 | 1020.4 |
| 20260506133457 | 54 | 33 | 10.0 | 10.0 | 0.00 | 0.00 | 0.00 | 99 | 1020.3 |
| 20260506132954 | 53 | 106 | 0.0 | 8.0 | 0.00 | 0.00 | 0.00 | 99 | 1020.7 |
| 20260506132451 | 53 | 3 | 5.0 | 10.0 | 0.00 | 0.00 | 0.00 | 99 | 1020.0 |
| 20260506131949 | 53 | 291 | 1.0 | 6.0 | 0.00 | 0.00 | 0.00 | 99 | 1019.9 |
| 20260506131445 | 53 | 71 | 0.0 | 5.0 | 0.00 | 0.00 | 0.00 | 99 | 1019.8 |
| 20260506130942 | 53 | 121 | 2.0 | 7.0 | 0.00 | 0.00 | 0.00 | 99 | 1019.9 |
| 20260506130439 | 53 | 66 | 2.0 | 7.0 | 0.00 | 0.00 | 0.00 | 99 | 1020.1 |
| 20260506125937 | 53 | 11 | 3.0 | 6.0 | 0.00 | 0.00 | 0.00 | 99 | 1019.9 |
| 20260506125435 | 53 | 300 | 1.0 | 5.0 | 0.00 | 0.00 | 0.00 | 99 | 1019.9 |
| 20260506124933 | 53 | 354 | 5.0 | 12.0 | 0.00 | 0.00 | 0.00 | 99 | 1019.9 |
| 20260506124430 | 53 | 4 | 10.0 | 12.0 | 0.00 | 0.00 | 0.00 | 99 | 1019.9 |
| 20260506123928 | 53 | 19 | 5.0 | 11.0 | 0.00 | 0.00 | 0.00 | 99 | 1019.7 |
| 20260506123426 | 53 | 86 | 2.0 | 8.0 | 0.00 | 0.00 | 0.00 | 99 | 1019.9 |
| 20260506122923 | 53 | 347 | 5.0 | 9.0 | 0.00 | 0.00 | 0.00 | 99 | 1019.7 |
| 20260506122419 | 53 | 7 | 9.0 | 9.0 | 0.00 | 0.00 | 0.00 | 99 | 1019.6 |
| 20260506121918 | 53 | 17 | 11.0 | 14.0 | 0.00 | 0.00 | 0.00 | 99 | 1019.5 |
| 20260506121414 | 53 | 14 | 6.0 | 11.0 | 0.00 | 0.00 | 0.00 | 99 | 1019.3 |
| 20260506120911 | 54 | 0 | 2.0 | 5.0 | 0.00 | 0.00 | 0.00 | 99 | 1019.6 |
| 20260506120409 | 54 | 90 | 0.0 | 8.0 | 0.00 | 0.00 | 0.00 | 99 | 1019.7 |
| 20260506115906 | 53 | 319 | 4.0 | 18.0 | 0.00 | 0.00 | 0.00 | 99 | 1019.6 |
| 20260506115404 | 53 | 39 | 7.0 | 17.0 | 0.00 | 0.00 | 0.00 | 99 | 1019.1 |
| 20260506114902 | 54 | 0 | 3.0 | 9.0 | 0.00 | 0.00 | 0.00 | 99 | 1019.5 |
| 20260506114359 | 54 | 14 | 2.0 | 10.0 | 0.00 | 0.00 | 0.00 | 99 | 1019.2 |
| 20260506113858 | 54 | 12 | 3.0 | 14.0 | 0.00 | 0.00 | 0.00 | 99 | 1018.8 |
| 20260506113355 | 54 | 32 | 9.0 | 11.0 | 0.00 | 0.00 | 0.00 | 99 | 1018.7 |
| 20260506112852 | 54 | 50 | 3.0 | 15.0 | 0.00 | 0.00 | 0.00 | 99 | 1018.7 |
| 20260506112349 | 54 | 88 | 6.0 | 15.0 | 0.00 | 0.00 | 0.00 | 99 | 1018.9 |
| 20260506111846 | 55 | 333 | 7.0 | 10.0 | 0.00 | 0.00 | 0.00 | 99 | 1018.5 |
| 20260506111344 | 55 | 261 | 2.0 | 14.0 | 0.00 | 0.00 | 0.00 | 99 | 1018.4 |
| 20260506110841 | 55 | 8 | 3.0 | 9.0 | 0.00 | 0.00 | 0.00 | 99 | 1018.5 |
| 20260506110338 | 55 | 52 | 11.0 | 17.0 | 0.00 | 0.00 | 0.00 | 99 | 1018.4 |
| 20260506105835 | 55 | 302 | 7.0 | 15.0 | 0.00 | 0.00 | 0.00 | 99 | 1018.3 |
| 20260506105332 | 55 | 56 | 4.0 | 9.0 | 0.00 | 0.00 | 0.00 | 99 | 1018.5 |
| 20260506104829 | 55 | 61 | 8.0 | 14.0 | 0.00 | 0.00 | 0.00 | 99 | 1018.1 |
| 20260506104327 | 55 | 33 | 8.0 | 8.0 | 0.00 | 0.00 | 0.00 | 99 | 1018.3 |
| 20260506103824 | 55 | 50 | 6.0 | 13.0 | 0.00 | 0.00 | 0.00 | 99 | 1017.9 |
| 20260506103322 | 56 | 5 | 4.0 | 8.0 | 0.00 | 0.00 | 0.00 | 99 | 1017.9 |
| 20260506102819 | 55 | 33 | 5.0 | 9.0 | 0.00 | 0.00 | 0.00 | 99 | 1017.8 |
| 20260506102317 | 56 | 16 | 4.0 | 11.0 | 0.00 | 0.00 | 0.00 | 99 | 1017.7 |
| 20260506101814 | 56 | 312 | 4.0 | 10.0 | 0.00 | 0.00 | 0.00 | 99 | 1017.7 |
| 20260506101310 | 56 | 322 | 4.0 | 11.0 | 0.00 | 0.00 | 0.00 | 99 | 1017.4 |
| 20260506100808 | 56 | 60 | 9.0 | 9.0 | 0.00 | 0.00 | 0.00 | 99 | 1017.3 |
| 20260506100306 | 56 | 11 | 3.0 | 9.0 | 0.00 | 0.00 | 0.00 | 99 | 1017.4 |
| 20260506095804 | 56 | 18 | 4.0 | 10.0 | 0.00 | 0.00 | 0.00 | 99 | 1017.3 |
| 20260506095301 | 56 | 62 | 8.0 | 11.0 | 0.00 | 0.00 | 0.00 | 99 | 1017.2 |
| 20260506094757 | 57 | 24 | 7.0 | 10.0 | 0.00 | 0.00 | 0.00 | 99 | 1017.2 |
| 20260506094256 | 57 | 19 | 4.0 | 12.0 | 0.00 | 0.00 | 0.00 | 99 | 1017.2 |
| 20260506093754 | 57 | 346 | 4.0 | 9.0 | 0.00 | 0.00 | 0.00 | 99 | 1017.2 |
| 20260506093251 | 57 | 26 | 4.0 | 9.0 | 0.00 | 0.00 | 0.00 | 99 | 1017.1 |
| 20260506092749 | 57 | 56 | 5.0 | 7.0 | 0.00 | 0.00 | 0.00 | 99 | 1017.2 |
| 20260506092246 | 57 | 10 | 3.0 | 8.0 | 0.00 | 0.00 | 0.00 | 99 | 1017.2 |
| 20260506091743 | 57 | 44 | 7.0 | 7.0 | 0.00 | 0.00 | 0.00 | 99 | 1017.0 |
| 20260506091241 | 58 | 21 | 2.0 | 2.0 | 0.00 | 0.00 | 0.00 | 99 | 1017.1 |
| 20260506090739 | 57 | 26 | 5.0 | 8.0 | 0.00 | 0.00 | 0.00 | 99 | 1016.8 |
| 20260506090235 | 58 | 70 | 4.0 | 11.0 | 0.00 | 0.00 | 0.00 | 99 | 1017.0 |
| 20260506085732 | 58 | 3 | 3.0 | 9.0 | 0.00 | 0.00 | 0.00 | 99 | 1016.9 |
| 20260506085228 | 58 | 13 | 4.0 | 6.0 | 0.00 | 0.00 | 0.00 | 99 | 1016.8 |
| 20260506084726 | 58 | 339 | 5.0 | 9.0 | 0.00 | 0.00 | 0.00 | 99 | 1016.7 |
| 20260506084221 | 58 | 326 | 2.0 | 5.0 | 0.00 | 0.00 | 0.00 | 99 | 1016.8 |
| 20260506083718 | 58 | 90 | 4.0 | 7.0 | 0.00 | 0.00 | 0.00 | 99 | 1016.6 |
| 20260506083216 | 57 | 24 | 5.0 | 7.0 | 0.00 | 0.00 | 0.00 | 99 | 1016.6 |
| 20260506082713 | 57 | 29 | 3.0 | 8.0 | 0.00 | 0.00 | 0.00 | 99 | 1016.5 |
| 20260506082209 | 57 | 90 | 0.0 | 9.0 | 0.00 | 0.00 | 0.00 | 99 | 1016.5 |
| 20260506081707 | 57 | 95 | 2.0 | 8.0 | 0.00 | 0.00 | 0.00 | 99 | 1016.5 |
| 20260506081204 | 57 | 13 | 5.0 | 7.0 | 0.00 | 0.00 | 0.00 | 99 | 1016.0 |
| 20260506080701 | 57 | 61 | 2.0 | 7.0 | 0.00 | 0.00 | 0.00 | 99 | 1016.4 |
| 20260506080158 | 58 | 96 | 1.0 | 4.0 | 0.00 | 0.00 | 0.00 | 99 | 1016.3 |
| 20260506073143 | 58 | 0 | 0.0 | 10.0 | 0.00 | 0.00 | 0.00 | 99 | 1016.4 |
| 20260506072638 | 58 | 29 | 3.0 | 10.0 | 0.00 | 0.00 | 0.00 | 99 | 1016.3 |
| 20260506072137 | 59 | 30 | 5.0 | 6.0 | 0.00 | 0.00 | 0.00 | 99 | 1016.5 |
| 20260506071634 | 58 | 22 | 3.0 | 7.0 | 0.00 | 0.00 | 0.00 | 99 | 1016.4 |
| 20260506071131 | 58 | 10 | 3.0 | 4.0 | 0.00 | 0.00 | 0.00 | 99 | 1016.3 |
| 20260506070628 | 58 | 31 | 6.0 | 8.0 | 0.00 | 0.00 | 0.00 | 99 | 1016.4 |
| 20260506070126 | 59 | 353 | 3.0 | 7.0 | 0.00 | 0.00 | 0.00 | 99 | 1016.4 |
| 20260506062103 | 60 | 25 | 3.0 | 5.0 | 0.00 | 0.00 | 0.00 | 99 | 1016.1 |
| 20260506061558 | 60 | 297 | 2.0 | 7.0 | 0.00 | 0.00 | 0.00 | 99 | 1016.4 |
| 20260506061056 | 60 | 58 | 6.0 | 8.0 | 0.00 | 0.00 | 0.00 | 99 | 1016.2 |
| 20260506060555 | 60 | 36 | 3.0 | 10.0 | 0.00 | 0.00 | 0.00 | 99 | 1016.1 |
| 20260506051024 | 62 | 0 | 0.0 | 8.0 | 0.00 | 0.00 | 0.00 | 99 | 1016.3 |
| 20260506050521 | 62 | 49 | 5.0 | 8.0 | 0.00 | 0.00 | 0.00 | 99 | 1016.2 |
| 20260506045011 | 62 | 64 | 3.0 | 11.0 | 0.00 | 0.00 | 0.00 | 99 | 1016.0 |
| 20260506044510 | 62 | 312 | 4.0 | 7.0 | 0.00 | 0.00 | 0.00 | 99 | 1016.2 |
| 20260506044006 | 63 | 5 | 6.0 | 10.0 | 0.00 | 0.00 | 0.00 | 99 | 1016.2 |
| 20260506043503 | 63 | 24 | 5.0 | 7.0 | 0.00 | 0.00 | 0.00 | 99 | 1015.8 |
| 20260506043001 | 63 | 9 | 5.0 | 8.0 | 0.00 | 0.00 | 0.00 | 99 | 1016.0 |
| 20260506042501 | 63 | 28 | 6.0 | 9.0 | 0.00 | 0.00 | 0.00 | 99 | 1015.8 |
| 20260506041958 | 63 | 357 | 3.0 | 12.0 | 0.00 | 0.00 | 0.00 | 99 | 1016.1 |
| 20260506041456 | 63 | 48 | 8.0 | 10.0 | 0.00 | 0.00 | 0.00 | 99 | 1015.9 |
| 20260506040953 | 63 | 33 | 5.0 | 8.0 | 0.00 | 0.00 | 0.00 | 99 | 1015.5 |
| 20260506040451 | 64 | 97 | 3.0 | 7.0 | 0.00 | 0.00 | 0.00 | 99 | 1015.6 |
| 20260506035946 | 64 | 19 | 4.0 | 5.0 | 0.00 | 0.00 | 0.00 | 99 | 1015.5 |
| 20260506035444 | 64 | 36 | 9.0 | 9.0 | 0.00 | 0.00 | 0.00 | 99 | 1015.6 |
| 20260506034940 | 65 | 29 | 6.0 | 9.0 | 0.00 | 0.00 | 0.00 | 99 | 1015.5 |
| 20260506034438 | 65 | 50 | 4.0 | 16.0 | 0.00 | 0.00 | 0.00 | 99 | 1015.3 |
| 20260506033935 | 66 | 12 | 6.0 | 13.0 | 0.00 | 0.00 | 0.00 | 99 | 1015.2 |
| 20260506033432 | 66 | 26 | 9.0 | 14.0 | 0.00 | 0.00 | 0.00 | 99 | 1015.4 |
| 20260506032928 | 66 | 83 | 7.0 | 10.0 | 0.00 | 0.00 | 0.00 | 99 | 1015.2 |
| 20260506032426 | 66 | 0 | 3.0 | 12.0 | 0.00 | 0.00 | 0.00 | 99 | 1014.7 |
| 20260506031922 | 67 | 33 | 5.0 | 11.0 | 0.00 | 0.00 | 0.00 | 99 | 1014.7 |
| 20260506031419 | 68 | 50 | 3.0 | 9.0 | 0.00 | 0.00 | 0.00 | 99 | 1014.5 |
| 20260506030917 | 68 | 8 | 6.0 | 10.0 | 0.00 | 0.00 | 0.00 | 99 | 1014.6 |
| 20260506030415 | 68 | 56 | 2.0 | 13.0 | 0.00 | 0.00 | 0.00 | 99 | 1014.5 |
| 20260506025911 | 69 | 25 | 6.0 | 11.0 | 0.00 | 0.00 | 0.00 | 99 | 1014.5 |
| 20260506025409 | 69 | 29 | 8.0 | 9.0 | 0.00 | 0.00 | 0.00 | 99 | 1014.4 |
| 20260506024905 | 69 | 352 | 6.0 | 11.0 | 0.00 | 0.00 | 0.00 | 99 | 1014.5 |
| 20260506024402 | 69 | 7 | 4.0 | 10.0 | 0.00 | 0.00 | 0.00 | 99 | 1014.2 |
| 20260506023858 | 69 | 126 | 4.0 | 13.0 | 0.00 | 0.00 | 0.00 | 99 | 1013.8 |
| 20260506023355 | 70 | 0 | 0.0 | 6.0 | 0.00 | 0.00 | 0.00 | 99 | 1013.4 |
| 20260506022852 | 70 | 16 | 8.0 | 13.0 | 0.00 | 0.00 | 0.00 | 99 | 1013.5 |
| 20260506022349 | 70 | 7 | 9.0 | 11.0 | 0.00 | 0.00 | 0.00 | 99 | 1013.4 |
| 20260506021847 | 71 | 356 | 3.0 | 9.0 | 0.00 | 0.00 | 0.00 | 99 | 1013.3 |
| 20260506021344 | 71 | 16 | 5.0 | 9.0 | 0.00 | 0.00 | 0.00 | 99 | 1013.3 |
| 20260506020840 | 71 | 86 | 2.0 | 10.0 | 0.00 | 0.00 | 0.00 | 99 | 1012.9 |
| 20260506020339 | 73 | 58 | 3.0 | 10.0 | 0.00 | 0.00 | 0.00 | 99 | 1012.4 |
| 20260506015836 | 73 | 22 | 7.0 | 11.0 | 0.00 | 0.00 | 0.00 | 99 | 1012.7 |
| 20260506015334 | 73 | 43 | 4.0 | 7.0 | 0.00 | 0.00 | 0.00 | 99 | 1012.9 |
| 20260506014830 | 73 | 54 | 4.0 | 5.0 | 0.00 | 0.00 | 0.00 | 99 | 1012.7 |
| 20260506014327 | 73 | 45 | 4.0 | 5.0 | 0.00 | 0.00 | 0.00 | 99 | 1012.5 |
| 20260506013823 | 73 | 26 | 5.0 | 9.0 | 0.00 | 0.00 | 0.00 | 99 | 1012.6 |
| 20260506013321 | 74 | 15 | 3.0 | 6.0 | 0.00 | 0.00 | 0.00 | 99 | 1012.6 |
| 20260506012817 | 74 | 20 | 3.0 | 6.0 | 0.00 | 0.00 | 0.00 | 99 | 1012.4 |
| 20260506012314 | 74 | 50 | 3.0 | 7.0 | 0.00 | 0.00 | 0.00 | 99 | 1012.8 |
| 20260506011812 | 74 | 23 | 4.0 | 6.0 | 0.00 | 0.00 | 0.00 | 99 | 1012.6 |
| 20260506011308 | 74 | 65 | 5.0 | 6.0 | 0.00 | 0.00 | 0.00 | 99 | 1012.4 |
| 20260506010806 | 74 | 46 | 8.0 | 9.0 | 0.00 | 0.00 | 0.00 | 99 | 1012.3 |
| 20260506010303 | 74 | 0 | 3.0 | 4.0 | 0.00 | 0.00 | 0.00 | 99 | 1012.3 |
| 20260506005800 | 74 | 47 | 3.0 | 6.0 | 0.00 | 0.00 | 0.00 | 99 | 1012.0 |
| 20260506005257 | 74 | 11 | 5.0 | 9.0 | 0.00 | 0.00 | 0.00 | 99 | 1011.7 |
| 20260506004753 | 75 | 20 | 10.0 | 10.0 | 0.00 | 0.00 | 0.00 | 99 | 1011.8 |
| 20260506004251 | 75 | 29 | 7.0 | 10.0 | 0.00 | 0.00 | 0.00 | 99 | 1011.9 |
| 20260506003746 | 76 | 9 | 5.0 | 9.0 | 0.00 | 0.00 | 0.00 | 99 | 1011.9 |
| 20260506003243 | 76 | 12 | 9.0 | 10.0 | 0.00 | 0.00 | 0.00 | 99 | 1011.8 |
| 20260506002739 | 77 | 354 | 0.0 | 8.0 | 0.00 | 0.00 | 0.00 | 99 | 1011.7 |
| 20260506002236 | 78 | 353 | 3.0 | 7.0 | 0.00 | 0.00 | 0.00 | 99 | 1011.6 |
| 20260506001731 | 78 | 92 | 6.0 | 10.0 | 0.00 | 0.00 | 0.00 | 99 | 1011.8 |
| 20260506001229 | 79 | 358 | 3.0 | 7.0 | 0.00 | 0.00 | 0.00 | 99 | 1011.8 |
| 20260506000726 | 79 | 17 | 4.0 | 6.0 | 0.00 | 0.00 | 0.00 | 99 | 1011.5 |
| 20260506000226 | 80 | 266 | 3.0 | 9.0 | 0.00 | 0.00 | 0.00 | 99 | 1011.0 |
| 20260505235720 | 80 | 26 | 2.0 | 7.0 | 0.00 | 0.00 | 0.00 | 99 | 1011.0 |
| 20260505235219 | 80 | 90 | 1.0 | 10.0 | 0.00 | 0.00 | 0.00 | 99 | 1010.7 |
| 20260505234715 | 81 | 110 | 2.0 | 12.0 | 0.00 | 0.00 | 0.00 | 99 | 1010.8 |
| 20260505234212 | 81 | 19 | 5.0 | 8.0 | 0.00 | 0.00 | 0.00 | 99 | 1011.0 |
| 20260505233708 | 82 | 8 | 4.0 | 14.0 | 0.00 | 0.00 | 0.00 | 99 | 1010.8 |
| 20260505233206 | 83 | 51 | 7.0 | 9.0 | 0.00 | 0.00 | 0.00 | 99 | 1011.0 |
| 20260505232704 | 84 | 70 | 3.0 | 10.0 | 0.00 | 0.00 | 0.00 | 99 | 1010.7 |
| 20260505232201 | 85 | 228 | 2.0 | 7.0 | 0.00 | 0.00 | 0.00 | 99 | 1010.6 |
| 20260505231657 | 85 | 293 | 3.0 | 5.0 | 0.00 | 0.00 | 0.00 | 99 | 1010.4 |
| 20260505231157 | 86 | 325 | 1.0 | 6.0 | 0.00 | 0.00 | 0.00 | 99 | 1010.3 |
| 20260505230654 | 86 | 331 | 3.0 | 6.0 | 0.00 | 0.00 | 0.00 | 99 | 1010.3 |
| 20260505230151 | 86 | 331 | 1.0 | 9.0 | 0.00 | 0.00 | 0.00 | 99 | 1010.2 |
| 20260505225647 | 88 | 344 | 5.0 | 12.0 | 0.00 | 0.00 | 0.00 | 99 | 1009.9 |
| 20260505225143 | 89 | 262 | 3.0 | 3.0 | 0.00 | 0.00 | 0.00 | 99 | 1009.8 |
| 20260505224639 | 89 | 274 | 3.0 | 8.0 | 0.00 | 0.00 | 0.00 | 99 | 1009.9 |
| 20260505224138 | 89 | 200 | 1.0 | 5.0 | 0.00 | 0.00 | 0.00 | 99 | 1009.9 |
| 20260505223635 | 89 | 208 | 2.0 | 5.0 | 0.00 | 0.00 | 0.00 | 99 | 1009.7 |
| 20260505223130 | 89 | 255 | 3.0 | 6.0 | 0.00 | 0.00 | 0.00 | 99 | 1009.5 |
| 20260505222627 | 90 | 162 | 2.0 | 3.0 | 0.00 | 0.00 | 0.00 | 99 | 1009.6 |
| 20260505222123 | 89 | 246 | 0.0 | 3.0 | 0.00 | 0.00 | 0.00 | 99 | 1009.5 |
| 20260505221620 | 90 | 124 | 0.0 | 6.0 | 0.00 | 0.00 | 0.00 | 99 | 1009.4 |
| 20260505221117 | 90 | 120 | 0.0 | 5.0 | 0.00 | 0.00 | 0.00 | 99 | 1009.3 |